Tracking 29892 objects as of 21-Nov-2024
HD Live streaming from Space Station
objects crossing your sky now

DMSP 5D-2 F11 DEB

Track DMSP 5D-2 F11 DEB now!
10-day predictions


NORAD ID: 28333
Int'l Code: 1991-082AW
Perigee: 676.5 km
Apogee: 687.2 km
Inclination: 98.5 °
Period: 98.2 minutes
Semi major axis: 7052 km
RCS: 0.0092 m2 (small)
Launch date: November 28, 1991
Source: United States (US)
Launch site: AIR FORCE WESTERN TEST RANGE (AFWTR)

Note: This is SATELLITE DEBRIS
Your satellite tracking list
Your tracking list is empty




NASA's NSSDC Master Catalog

Two Line Element Set (TLE):
1 28333U 91082AW  24325.48779001  .00028919  00000-0  52944-2 0  9996
2 28333  98.5403  45.4977 0007582 260.3212 165.8736 14.65739244 71935
Source of the keplerian elements: AFSPC